[[[{"header":{"parameterUnit":"kt","parameterCategory":2,"dx":1,"dy":1,"la1":30.253999710083008,"la2":30.299108505249023,"lo1":-89.0895004272461,"lo2":-89.04439544677734,"nx":28,"ny":28,"refTime":"2022-09-30T21:00:00:Z","depth":0,"parameterNumber":1,"parameterNumberName":"U-component_of_WINDS"},"data":[-2.7641,-2.7725,-2.7724,-2.7819,-2.7833,-2.7898,-2.792,-2.7948,-2.797,-2.8046,-2.8089,-2.8094,-2.8114,-2.8164,-2.821,-2.8211,-2.8232,-2.8264,-2.826,-2.812,-2.8101,-2.8083,-2.8064,-2.8267,-2.8268,-2.8407,-2.8408,-2.8409,-2.7538,-2.7554,-2.7603,-2.765,-2.7692,-2.7661,-2.7694,-2.7732,-2.7791,-2.7817,-2.7859,-2.7926,-2.7977,-2.7986,-2.8035,-2.8074,-2.8062,-2.8088,-2.8087,-2.8091,-2.794,-2.792,-2.8097,-2.8096,-2.8096,-2.8096,-2.8096,-2.8096,-2.7353,-2.7403,-2.7431,-2.7484,-2.7507,-2.7538,-2.7585,-2.7591,-2.7639,-2.7691,-2.7677,-2.7743,-2.7769,-2.7826,-2.7844,-2.7895,-2.7866,-2.7893,-2.7901,-2.7909,-2.7919,-2.7723,-2.7902,-2.7902,-2.7901,-2.7901,-2.79,0,-2.7217,-2.7212,-2.7259,-2.7306,-2.7345,-2.7381,-2.7413,-2.7442,-2.7429,-2.7469,-2.7526,-2.7559,-2.7622,-2.7676,-2.7721,-2.7734,-2.7707,-2.7702,-2.7721,-2.7732,-2.7735,-2.7737,-2.7495,-2.7698,-2.7696,-2.7695,-2.7694,-2.7693,-2.7032,-2.7091,-2.7118,-2.7151,-2.7168,-2.7222,-2.7254,-2.7238,-2.7272,-2.7308,-2.7353,-2.7406,-2.7448,-2.754,-2.7545,-2.7593,-2.758,-2.7659,-2.7588,-2.7594,-2.7586,-2.7584,-2.7591,-2.7674,-2.7677,-2.7679,-2.768,0,-2.6929,-2.6925,-2.7015,-2.7035,-2.7042,-2.7104,-2.7121,-2.717,-2.717,-2.7238,-2.7252,-2.7253,-2.7309,-2.7302,-2.7364,-2.7359,-2.7461,-2.7446,-2.7453,-2.7451,-2.7522,-2.7517,-2.775,-2.7781,-2.7566,-2.7568,-2.7569,0,-2.6772,-2.6849,-2.6839,-2.6891,-2.6975,-2.6958,-2.7042,-2.7051,-2.7073,-2.7126,-2.7092,-2.7143,-2.7125,-2.7175,-2.7167,-2.7248,-2.7259,-2.7261,-2.7259,-2.7267,-2.7267,-2.7287,-2.7279,-2.7247,-2.7246,-2.7245,-2.7244,0,-2.6614,-2.6697,-2.6781,-2.68,-2.683,-2.6869,-2.6883,-2.6908,-2.6939,-2.6977,-2.6997,-2.7042,-2.7068,-2.7104,-2.7094,-2.7047,-2.7193,-2.7125,-2.7195,-2.7196,-2.7231,-2.723,-2.7435,-2.7243,-2.7242,-2.7242,-2.7242,0,-2.6488,-2.6528,-2.6649,-2.6674,-2.6696,-2.6751,-2.6796,-2.6841,-2.6869,-2.6868,-2.6898,-2.6876,-2.6945,-2.6879,-2.6974,-2.6915,-2.6942,-2.695,-2.6954,-2.6964,-2.6891,-2.7012,-2.7205,-2.7226,-2.6967,-2.6965,-2.6963,0,-2.6309,-2.6431,-2.6417,-2.6533,-2.6588,-2.6549,-2.6608,-2.6635,-2.6639,-2.6686,-2.6689,-2.6743,-2.6692,-2.6708,-2.6755,-2.6762,-2.6838,-2.6751,-2.6821,-2.6824,-2.6819,-2.6995,-2.7028,-2.7162,-2.6933,-2.6937,-2.6939,0,-2.6171,-2.6207,-2.6229,-2.625,-2.6282,-2.6328,-2.6396,-2.6446,-2.6479,-2.651,-2.6569,-2.6642,-2.6608,-2.6634,-2.6621,-2.6671,-2.6786,-2.6628,-2.6628,-2.6659,-2.6917,-2.6948,-2.6971,-2.6766,-2.6769,-2.6772,-2.6915,0,-2.5987,-2.6047,-2.6104,-2.6151,-2.6184,-2.6255,-2.625,-2.6286,-2.627,-2.6273,-2.6356,-2.6376,-2.6426,-2.6449,-2.6434,-2.655,-2.653,-2.6492,-2.6431,-2.6545,-2.6592,-2.6611,-2.6361,-2.6359,-2.6357,-2.6356,0,0,-2.5819,-2.5905,-2.5888,-2.5955,-2.5983,-2.5941,-2.6018,-2.604,-2.6086,-2.6107,-2.6071,-2.6179,-2.6196,-2.6299,-2.6334,-2.6353,-2.6374,-2.6335,-2.649,-2.6505,-2.6519,-2.6569,-2.6589,-2.6353,-2.6352,-2.6352,-2.6351,0,-2.5752,-2.5771,-2.5847,-2.5869,-2.5901,-2.5901,-2.5919,-2.5944,-2.5949,-2.603,-2.5996,-2.6045,-2.6131,-2.6155,-2.6179,-2.6321,-2.6293,-2.6336,-2.6416,-2.6474,-2.6491,-2.6506,-2.6559,-2.6579,-2.6347,-2.6348,-2.6348,0,-2.5618,-2.5636,-2.5672,-2.5733,-2.5754,-2.5811,-2.5744,-2.5807,-2.585,-2.5801,-2.5883,-2.5893,-2.5924,-2.6021,-2.6064,-2.6033,-2.622,-2.6159,-2.6169,-2.6174,-2.623,-2.625,-2.6268,-2.6029,-2.6028,-2.6027,0,0,-2.556,-2.5615,-2.5631,-2.5718,-2.5733,-2.5733,-2.5763,-2.5751,-2.578,-2.5792,-2.5805,-2.5834,-2.5884,-2.5917,-2.5963,-2.607,-2.6076,-2.612,-2.6135,-2.6147,-2.616,-2.6218,-2.6239,-2.6023,-2.6022,-2.6022,0,0,-2.5533,-2.5555,-2.5534,-2.5635,-2.5664,-2.5685,-2.5738,-2.5713,-2.5755,-2.5746,-2.5728,-2.5735,-2.5825,-2.5837,-2.5783,-2.5942,-2.588,-2.5893,-2.5932,-2.5951,-2.5966,-2.5962,-2.5718,0,0,0,0,0,-2.5462,-2.5552,-2.5533,-2.5549,-2.5626,-2.5695,-2.5705,-2.5692,-2.5649,-2.5692,-2.5699,-2.5666,-2.5804,-2.5756,-2.5772,-2.5833,-2.597,-2.5979,-2.5988,-2.6063,-2.6083,-2.61,0,0,0,0,0,0,-2.5468,-2.5488,-2.553,-2.5556,-2.5573,-2.5692,-2.5616,-2.5616,-2.5645,-2.5637,-2.5666,-2.5667,-2.5658,-2.5747,-2.5762,-2.582,-2.5713,-2.5974,-2.5982,-2.5989,-2.607,-2.6086,-2.61,0,0,0,0,0,-2.5473,-2.5489,-2.5616,-2.5554,-2.5569,-2.5574,-2.5613,-2.5612,-2.5634,-2.5645,-2.5645,-2.5622,-2.566,-2.5671,-2.5756,-2.5814,-2.5703,-2.5709,-2.5979,-2.5985,-2.5991,-2.6078,0,0,0,0,0,0,-2.5477,-2.5488,-2.5618,-2.5622,-2.552,-2.5567,-2.5574,-2.5608,-2.5639,-2.564,-2.56,-2.5594,-2.5662,-2.5671,-2.568,-2.5813,-2.5695,-2.5701,-2.5704,-2.5984,-2.5989,-2.5993,0,0,0,0,0,0,-2.548,-2.5492,-2.562,-2.5577,-2.5576,-2.5561,-2.5567,-2.5637,-2.564,-2.5592,-2.5588,-2.5597,-2.5649,-2.5671,-2.5678,-2.5787,-2.5689,-2.5694,-2.5698,-2.57,-2.5988,-2.5991,0,0,0,0,0,0,-2.5484,-2.5495,-2.5576,-2.5576,-2.5574,-2.5619,-2.5622,-2.5702,-2.5604,-2.5591,-2.5595,-2.559,-2.565,-2.5656,-2.5677,-2.5783,-2.5786,-2.5689,-2.5692,-2.5695,-2.5697,0,0,0,0,0,0,0,-2.5489,-2.542,-2.5594,-2.5574,-2.5573,-2.566,-2.5661,-2.5662,-2.5603,-2.5599,-2.5595,-2.5592,-2.5658,-2.5664,-2.567,-2.578,0,0,-2.5688,-2.5691,0,0,0,0,0,0,0,0,-2.5416,-2.5419,-2.5594,-2.5595,-2.5596,-2.566,-2.5661,-2.5662,-2.5602,-2.5599,-2.5596,-2.5593,-2.5659,-2.5664,-2.5669,0,0,0,0,0,0,0,0,0,0,0,0,0,0,0,-2.5594,-2.5595,0,-2.566,-2.5661,-2.5662,-2.5602,-2.5599,-2.5597,-2.5595,-2.5661,-2.5665,-2.5669,0,0,0,0,0,0,0,0,0,0,0,0,0,0,0,0,0,0,0,0,0,0,0,0,0,0,0,0,0,0,0,0,0,0,0,0,0,0,0,0,0,0,0,0,0,0,0,0,0,0,0,0,0,0,0,0,0,0,0,0,0,0,0,0,0,0,0,0,0]}],[{"header":{"parameterUnit":"kt","parameterCategory":2,"dx":1,"dy":1,"la1":30.253999710083008,"la2":30.299108505249023,"lo1":-89.0895004272461,"lo2":-89.04439544677734,"nx":28,"ny":28,"refTime":"2022-09-30T21:00:00:Z","depth":0,"parameterNumber":2,"parameterNumberName":"V-component_of_WINDS"},"data":[-9.962,-9.976,-9.9758,-9.9915,-9.9939,-10.0045,-10.0082,-10.0128,-10.0163,-10.0286,-10.0355,-10.0363,-10.0393,-10.0472,-10.0545,-10.0545,-10.0577,-10.063,-10.0622,-10.0391,-10.0358,-10.0327,-10.0296,-10.0637,-10.0637,-10.0862,-10.0865,-10.0866,-9.9453,-9.9479,-9.9562,-9.964,-9.971,-9.9658,-9.9713,-9.9774,-9.9869,-9.9912,-9.998,-10.0087,-10.0169,-10.018,-10.0257,-10.0319,-10.0297,-10.034,-10.0336,-10.0341,-10.0094,-10.006,-10.0357,-10.0357,-10.0357,-10.0357,-10.0357,-10.0357,-9.9149,-9.9233,-9.9279,-9.9368,-9.9405,-9.9456,-9.9534,-9.9543,-9.9621,-9.9704,-9.9681,-9.9786,-9.9826,-9.9914,-9.9941,-10.0021,-9.9972,-10.0016,-10.0028,-10.0039,-10.0055,-9.9733,-10.0033,-10.0032,-10.0032,-10.0031,-10.003,0,-9.8925,-9.8918,-9.8996,-9.9074,-9.9138,-9.9196,-9.9249,-9.9296,-9.9272,-9.9337,-9.943,-9.9482,-9.9583,-9.9667,-9.9736,-9.9755,-9.9703,-9.9696,-9.9727,-9.9741,-9.9746,-9.9747,-9.9345,-9.9687,-9.9684,-9.9682,-9.9681,-9.9679,-9.8619,-9.8717,-9.8761,-9.8817,-9.8844,-9.8933,-9.8984,-9.8956,-9.9011,-9.9069,-9.9142,-9.9226,-9.9293,-9.9438,-9.9442,-9.9516,-9.9491,-9.9623,-9.9502,-9.9512,-9.9495,-9.949,-9.95,-9.9648,-9.9652,-9.9655,-9.9658,0,-9.8448,-9.8441,-9.859,-9.8622,-9.8633,-9.8736,-9.8762,-9.8842,-9.884,-9.8949,-9.8973,-9.8969,-9.9058,-9.9041,-9.9137,-9.9125,-9.9291,-9.9264,-9.9278,-9.9272,-9.9389,-9.9379,-9.977,-9.982,-9.9465,-9.9468,-9.9471,0,-9.8184,-9.8312,-9.8294,-9.838,-9.8521,-9.8489,-9.8628,-9.864,-9.8674,-9.876,-9.87,-9.8781,-9.8745,-9.8823,-9.8805,-9.8937,-9.8954,-9.8953,-9.8947,-9.8959,-9.896,-9.8987,-9.8971,-9.8927,-9.8925,-9.8923,-9.8922,0,-9.7917,-9.8055,-9.8196,-9.8226,-9.8272,-9.8338,-9.8359,-9.8396,-9.8445,-9.8506,-9.8537,-9.8609,-9.8648,-9.8704,-9.868,-9.8599,-9.884,-9.8723,-9.8839,-9.884,-9.8893,-9.889,-9.9241,-9.8919,-9.8919,-9.8918,-9.8917,0,-9.7702,-9.7768,-9.7972,-9.8009,-9.8046,-9.8137,-9.8208,-9.8281,-9.8324,-9.832,-9.8366,-9.8323,-9.8436,-9.8321,-9.8476,-9.8377,-9.8418,-9.8427,-9.8434,-9.8444,-9.8316,-9.8518,-9.8853,-9.8888,-9.8452,-9.8448,-9.8445,0,-9.7399,-9.7603,-9.7577,-9.777,-9.7862,-9.779,-9.7889,-9.7929,-9.7931,-9.8007,-9.8007,-9.8093,-9.8003,-9.8027,-9.8106,-9.8109,-9.8238,-9.8091,-9.8198,-9.8202,-9.8191,-9.8499,-9.8555,-9.8782,-9.8395,-9.84,-9.8404,0,-9.7163,-9.7218,-9.7255,-9.7288,-9.7337,-9.7412,-9.7526,-9.7605,-9.7657,-9.7707,-9.7802,-9.792,-9.7858,-9.7898,-9.7869,-9.7952,-9.815,-9.7873,-9.7874,-9.7925,-9.8368,-9.842,-9.8458,-9.8112,-9.8118,-9.8122,-9.8364,0,-9.6843,-9.6943,-9.704,-9.7114,-9.7169,-9.7288,-9.7271,-9.7331,-9.7299,-9.7298,-9.7435,-9.746,-9.7537,-9.7575,-9.7543,-9.7739,-9.7703,-9.7635,-9.7522,-9.7724,-9.7803,-9.7835,-9.7406,-9.7402,-9.7399,-9.7397,0,0,-9.6555,-9.6698,-9.6665,-9.6776,-9.682,-9.6742,-9.6871,-9.6904,-9.6973,-9.7005,-9.6942,-9.7113,-9.7136,-9.7304,-9.7365,-9.7396,-9.7429,-9.7359,-9.7628,-9.7654,-9.7677,-9.7763,-9.7796,-9.7392,-9.7391,-9.739,-9.7389,0,-9.6435,-9.6465,-9.6594,-9.6628,-9.6677,-9.6669,-9.67,-9.6734,-9.6738,-9.6873,-9.6804,-9.6883,-9.702,-9.7054,-9.7088,-9.7338,-9.7281,-9.7362,-9.7504,-9.7599,-9.7629,-9.7655,-9.7745,-9.7778,-9.7382,-9.7382,-9.7382,0,-9.62,-9.6227,-9.6287,-9.6385,-9.6415,-9.651,-9.6388,-9.6492,-9.6561,-9.6466,-9.66,-9.6611,-9.6654,-9.6815,-9.6886,-9.683,-9.7147,-9.7042,-9.706,-9.7068,-9.7158,-9.7194,-9.7226,-9.6807,-9.6805,-9.6803,0,0,-9.6099,-9.6191,-9.6208,-9.6358,-9.6382,-9.6372,-9.642,-9.6393,-9.6435,-9.6452,-9.6464,-9.6506,-9.6584,-9.6636,-9.6709,-9.6888,-9.6894,-9.6973,-9.7,-9.7022,-9.7041,-9.7138,-9.7173,-9.6796,-9.6796,-9.6795,0,0,-9.6049,-9.6076,-9.6038,-9.6209,-9.6253,-9.6278,-9.6369,-9.6321,-9.6384,-9.6368,-9.6325,-9.6334,-9.6483,-9.6496,-9.6402,-9.6668,-9.6556,-9.6578,-9.6655,-9.6688,-9.6715,-9.6709,-9.6279,0,0,0,0,0,-9.5917,-9.6073,-9.6038,-9.6064,-9.6185,-9.6298,-9.6313,-9.6282,-9.6205,-9.6278,-9.6281,-9.6215,-9.6437,-9.6353,-9.6378,-9.6483,-9.6703,-9.6719,-9.6735,-9.6875,-9.6911,-9.6941,0,0,0,0,0,0,-9.5927,-9.596,-9.6033,-9.6066,-9.6093,-9.6292,-9.6154,-9.615,-9.6196,-9.6182,-9.6217,-9.6217,-9.619,-9.6337,-9.6361,-9.6461,-9.6271,-9.6709,-9.6723,-9.6736,-9.6887,-9.6916,-9.6942,0,0,0,0,0,-9.5935,-9.5961,-9.6164,-9.6063,-9.6087,-9.6083,-9.6148,-9.6143,-9.6178,-9.6183,-9.618,-9.6151,-9.6194,-9.6211,-9.6351,-9.6451,-9.6254,-9.6263,-9.6718,-9.6729,-9.6739,-9.6902,0,0,0,0,0,0,-9.5941,-9.5957,-9.6168,-9.6174,-9.6002,-9.6071,-9.6081,-9.6138,-9.6175,-9.6174,-9.6113,-9.6102,-9.6199,-9.6211,-9.6225,-9.645,-9.6241,-9.625,-9.6256,-9.6727,-9.6735,-9.6743,0,0,0,0,0,0,-9.5942,-9.5962,-9.6171,-9.6096,-9.6093,-9.6061,-9.607,-9.6182,-9.6176,-9.6103,-9.6095,-9.6108,-9.6177,-9.6212,-9.6222,-9.64,-9.6231,-9.6239,-9.6245,-9.6249,-9.6734,-9.6741,0,0,0,0,0,0,-9.595,-9.5967,-9.6094,-9.6092,-9.6089,-9.6152,-9.6159,-9.6284,-9.6115,-9.6102,-9.6099,-9.6091,-9.618,-9.6189,-9.6221,-9.6395,-9.6398,-9.6231,-9.6237,-9.6241,-9.6244,0,0,0,0,0,0,0,-9.5956,-9.5851,-9.6134,-9.6089,-9.6085,-9.6228,-9.623,-9.6231,-9.6113,-9.6107,-9.61,-9.6094,-9.6182,-9.6192,-9.6201,-9.639,0,0,-9.623,-9.6235,0,0,0,0,0,0,0,0,-9.5843,-9.5849,-9.6134,-9.6135,-9.6137,-9.6229,-9.623,-9.6231,-9.6112,-9.6107,-9.6102,-9.6097,-9.6185,-9.6192,-9.62,0,0,0,0,0,0,0,0,0,0,0,0,0,0,0,-9.6134,-9.6135,0,-9.6229,-9.623,-9.6231,-9.6111,-9.6107,-9.6103,-9.6099,-9.6187,-9.6193,-9.6199,0,0,0,0,0,0,0,0,0,0,0,0,0,0,0,0,0,0,0,0,0,0,0,0,0,0,0,0,0,0,0,0,0,0,0,0,0,0,0,0,0,0,0,0,0,0,0,0,0,0,0,0,0,0,0,0,0,0,0,0,0,0,0,0,0,0,0,0,0]}]]]